Dewpoint
70 70 67 59 51 52 48 50 50 50 54 58 58 55 56 59 55 50 67 68 70 71 72 72 73 72 72 72 72 73 72 72 72 72 71 73 73 73 73 73 73 73 72 71 71 71 70 70 70
71 70 63 58 49 46 50 54 52 54 57 59 58 58 58 58 63 65 66 70 70 71 72 72 73 73 72 72 73 72 72 72 72 72 71 72 73 73 73 72 73 73 72 71 71 71 70 70 70
70 66 54 52 50 49 50 54 53 55 57 56 58 59 59 59 64 65 68 70 71 71 72 72 73 72 72 72 72 71 72 72 72 72 71 72 72 73 73 72 73 72 72 72 72 71 70 70 70
65 59 57 49 49 52 52 53 55 54 55 58 59 58 61 64 64 66 70 70 71 71 72 72 72 72 71 71 71 72 72 73 72 72 72 72 72 72 72 73 72 72 73 72 71 71 71 70 70
66 59 50 49 51 53 54 55 56 54 55 57 57 58 60 63 67 68 69 70 70 70 71 72 72 71 72 72 72 72 73 72 72 72 72 72 71 71 72 73 72 73 72 71 70 70 69 70 70
54 58 49 47 51 54 55 58 57 56 56 57 58 59 60 64 66 67 68 69 70 70 71 72 72 71 71 72 71 71 72 72 72 72 72 72 72 72 72 72 72 72 71 71 71 71 71 70 69
52 52 50 52 53 53 54 58 58 54 54 55 59 57 60 63 65 67 68 69 69 70 71 71 71 70 70 71 70 72 72 72 72 72 72 72 72 73 72 72 72 71 71 71 71 70 70 70 70
58 55 50 53 51 50 56 59 60 53 54 58 59 55 57 62 65 66 67 68 68 69 69 70 70 71 71 71 71 72 72 71 72 73 73 72 73 73 73 73 72 71 71 70 70 71 71 72 72
62 50 47 48 51 53 58 57 57 57 55 56 58 60 61 63 65 65 65 66 66 66 68 69 70 70 71 71 71 72 72 72 72 72 72 72 72 72 73 73 71 71 72 71 71 71 71 72 71
56 52 50 52 54 53 57 58 58 57 55 58 59 62 62 63 63 63 64 64 65 65 67 69 70 70 71 71 71 71 71 71 72 72 72 72 72 72 72 73 72 72 72 71 71 71 72 71 67
58 51 54 56 55 55 57 56 58 55 53 57 56 60 62 62 62 63 63 63 64 65 67 68 69 69 70 70 70 69 69 69 70 70 71 71 70 72 72 71 72 72 72 71 70 68 69 69 66
56 56 57 57 57 58 55 58 58 56 55 57 59 61 61 60 61 62 62 62 63 65 66 68 68 68 69 70 69 68 66 67 69 68 69 69 69 70 70 70 70 69 69 67 67 68 68 68 67
55 53 58 58 58 58 59 56 56 56 58 59 60 61 60 60 61 61 61 61 63 64 66 67 67 67 68 68 68 67 67 67 68 68 69 69 69 68 69 68 67 68 68 68 68 68 68 67 69
56 58 57 56 57 58 57 57 56 58 58 59 60 59 59 59 60 60 60 60 62 64 65 66 67 67 67 68 68 67 68 69 69 68 68 68 68 68 67 67 67 68 67 67 67 68 68 67 68
56 55 57 58 55 55 57 54 55 58 59 58 59 59 59 58 58 59 59 60 61 64 65 65 66 67 67 67 67 67 67 67 67 69 67 66 67 68 67 67 67 67 65 67 67 67 68 67 68
52 51 48 55 57 57 54 49 56 58 56 57 58 58 58 58 57 58 58 59 61 63 65 65 65 66 66 66 66 65 66 67 67 68 69 67 66 67 67 66 67 65 65 68 66 65 65 65 66
50 43 46 48 56 56 54 50 56 59 58 56 56 57 57 58 58 58 58 59 62 63 64 65 64 66 65 65 65 65 65 65 67 68 69 67 64 66 65 65 65 64 66 64 63 65 67 63 64
32 39 46 46 53 54 53 51 56 59 59 58 55 57 57 56 57 58 58 59 63 64 65 65 64 65 65 64 64 65 66 66 67 67 67 68 64 67 65 63 63 64 65 67 61 67 65 64 63
33 38 38 48 53 51 52 51 52 57 57 57 58 57 57 54 53 58 59 60 64 65 65 64 63 64 63 62 63 65 64 66 66 67 67 67 66 66 65 62 63 64 63 67 66 68 64 64 63
24 33 39 49 53 52 53 52 52 54 54 56 57 57 57 55 55 58 60 60 64 64 65 65 64 64 63 62 64 65 65 66 66 67 66 66 65 64 65 64 62 62 66 68 67 68 67 65 66
29 33 42 43 52 53 53 49 52 55 54 54 56 57 57 57 54 58 61 62 63 64 65 65 65 65 64 63 65 66 66 68 67 66 65 64 65 64 64 62 62 61 68 67 69 69 66 62 65
14 30 36 47 48 42 49 37 46 52 54 53 53 55 56 58 57 56 59 61 62 63 65 65 66 65 65 64 64 65 64 63 65 65 65 64 65 65 65 62 61 63 69 67 66 69 65 60 61
13 27 36 50 47 48 49 43 42 49 49 52 53 53 55 57 57 56 55 60 62 63 64 65 66 66 66 66 65 65 65 64 65 67 66 64 65 65 65 65 62 65 69 69 67 69 65 64 63
27 35 37 42 44 40 41 43 36 44 43 47 53 54 54 57 58 58 56 58 61 63 64 65 65 65 66 66 66 65 65 64 64 65 65 65 66 66 66 66 67 63 68 69 68 69 69 69 67
16 24 20 31 39 36 43 45 39 41 46 46 47 53 54 55 57 58 57 58 60 62 63 64 65 65 66 66 66 66 66 65 64 64 65 65 66 66 67 67 67 68 69 69 69 69 69 70 69
11 13 9 4 7 18 46 38 32 40 45 49 49 50 54 55 57 58 58 58 59 61 63 64 65 65 66 66 65 66 66 66 65 65 66 66 66 66 67 67 68 68 69 69 70 69 69 69 69
8 7 10 20 34 29 32 30 31 41 46 49 49 52 54 55 56 57 58 59 60 62 64 65 65 65 65 66 66 66 67 66 65 65 66 66 67 67 67 68 68 69 69 69 70 70 69 69 69
10 11 7 13 9 11 13 27 19 18 41 49 49 50 53 55 56 56 58 59 61 61 64 65 65 66 65 66 66 66 66 67 67 67 66 67 67 67 67 67 68 68 69 70 70 69 69 69 69
9 8 12 11 11 6 6 8 31 33 40 47 50 52 55 56 56 56 58 60 61 63 65 65 66 66 66 66 66 66 66 67 67 67 67 67 68 67 68 68 68 68 68 70 69 69 69 68 68
12 11 13 8 10 20 16 17 36 40 44 47 50 52 54 57 58 59 60 60 61 63 65 65 66 65 65 65 67 67 67 67 67 66 67 68 67 68 67 68 69 68 68 69 70 69 69 68 67
Wind_Speed
6 6 2 2 1 2 5 8 5 5 4 2 5 3 5 4 3 2 3 5 15 16 11 12 13 11 10 9 9 9 10 10 10 11 12 13 13 14 13 14 13 14 14 15 14 13 12 11 12
8 5 2 2 3 5 4 8 16 5 7 15 9 6 4 2 2 6 7 7 12 15 12 12 13 11 9 10 10 9 10 10 10 10 11 12 12 13 13 12 13 13 14 15 13 13 13 12 11
9 2 2 4 4 4 3 8 7 11 8 2 5 5 2 2 6 12 5 11 13 12 11 11 14 12 10 9 9 9 10 11 11 11 12 12 12 13 13 12 13 12 15 14 12 13 11 10 8
5 2 4 5 7 2 2 6 4 4 6 8 9 7 4 4 10 7 12 12 14 10 10 10 12 11 10 10 10 10 9 10 11 11 11 12 13 13 13 12 14 14 14 12 11 10 8 8 7
3 2 5 5 3 3 4 4 1 4 2 2 2 3 4 2 11 16 14 12 15 10 8 9 12 11 10 10 11 11 11 12 11 11 12 13 14 14 13 14 13 14 13 11 9 8 7 6 6
3 3 3 7 3 3 4 6 5 2 4 4 8 5 2 5 16 11 12 12 11 12 8 8 12 10 9 10 9 11 11 13 13 13 13 13 13 13 13 13 13 11 10 9 8 7 7 6 5
4 3 2 5 3 5 4 9 4 4 8 1 8 4 2 6 10 13 12 11 10 7 7 7 8 11 9 7 12 8 10 11 11 12 13 14 12 13 12 11 10 9 8 9 9 8 7 6 5
4 2 2 3 6 4 4 6 2 5 2 8 9 5 7 9 13 13 11 9 9 7 8 7 9 6 5 6 11 11 9 10 11 11 12 13 11 11 11 10 8 8 6 8 8 7 7 6 6
1 3 3 4 5 7 4 7 3 6 12 1 3 6 7 19 16 13 12 7 7 7 8 7 7 6 5 5 8 10 10 11 11 10 12 8 6 8 9 8 7 6 5 5 5 6 5 4 4
1 1 2 4 6 9 8 3 3 4 5 4 4 12 19 18 16 16 14 12 11 9 7 6 5 6 6 5 9 8 8 8 7 9 8 8 6 7 6 4 5 3 2 3 4 3 3 3 3
3 3 2 2 10 14 7 7 3 6 9 6 15 18 18 17 14 15 13 13 14 11 9 9 9 7 8 9 10 9 7 8 8 9 7 7 5 5 5 3 4 3 5 4 6 5 4 5 5
2 7 1 4 9 10 11 6 5 11 7 7 12 19 17 17 16 15 14 13 11 11 11 9 9 9 9 8 9 10 9 7 8 6 8 4 5 4 4 3 1 2 2 3 4 5 5 6 4
8 2 6 6 10 7 9 10 5 12 14 13 16 15 15 14 13 10 10 11 11 12 10 10 9 9 8 10 8 8 8 7 6 5 5 4 4 3 4 2 1 1 1 2 6 7 7 5 3
2 7 7 5 8 7 7 5 2 1 7 16 18 17 14 14 15 11 14 15 15 12 12 11 11 10 9 9 8 8 8 7 6 4 3 3 3 3 3 3 3 1 3 3 4 5 7 6 1
4 4 5 5 6 5 9 5 5 4 11 15 16 16 15 14 14 18 17 17 17 14 13 15 12 9 9 10 9 7 7 5 4 4 3 3 2 4 4 3 3 0 3 3 4 3 1 5 1
3 3 1 1 3 2 5 9 7 13 16 10 14 16 15 18 20 17 15 13 15 15 16 14 11 11 13 12 9 6 5 4 3 2 4 2 1 4 4 4 3 1 3 3 6 6 5 6 1
5 2 3 3 4 4 8 4 12 13 14 18 16 16 18 17 17 18 16 15 16 18 17 16 14 12 13 11 10 10 9 7 5 3 4 4 3 4 4 3 4 0 2 4 4 6 5 5 5
1 2 4 6 5 5 8 10 11 12 11 15 19 16 14 21 25 23 20 17 16 16 16 15 15 12 13 11 8 7 7 8 7 8 7 6 5 4 5 3 4 1 1 4 5 6 8 5 6
1 3 9 5 6 7 15 14 14 21 16 17 17 17 17 21 24 23 20 19 16 16 18 19 19 15 14 12 11 8 9 7 7 9 10 8 8 7 5 4 5 2 2 1 2 2 5 5 3
6 6 8 5 4 7 7 20 14 20 23 24 21 18 21 15 13 18 19 19 20 20 19 18 20 18 16 12 8 6 7 6 5 8 9 8 9 9 9 6 7 5 3 3 3 2 2 3 1
9 10 8 5 4 7 3 8 14 12 20 18 19 19 17 20 21 19 21 22 18 20 23 22 21 18 16 15 9 4 5 3 5 6 6 9 10 10 8 6 9 6 5 3 4 3 3 4 1
15 16 15 13 10 6 3 7 7 16 23 24 24 22 21 18 13 16 19 19 22 24 18 19 18 18 16 17 16 13 10 9 9 8 9 8 11 10 7 8 12 8 6 4 4 5 3 4 3
18 5 12 9 8 1 4 4 7 2 16 27 25 26 24 20 23 20 22 23 22 19 22 20 17 18 16 18 17 16 12 12 6 6 10 10 7 9 9 9 8 7 5 3 3 2 4 3 3
5 10 12 8 3 7 13 11 14 9 14 13 24 26 27 23 22 21 20 20 20 16 16 16 19 20 19 19 20 20 20 15 11 9 11 13 11 10 12 11 10 8 6 6 5 4 4 5 4
5 8 2 1 4 12 3 8 17 13 16 16 26 28 26 25 22 18 20 22 21 23 23 19 15 21 19 19 19 19 20 18 16 13 13 14 14 11 15 14 12 10 11 10 7 6 6 6 6
10 12 10 10 9 9 6 7 11 6 4 12 10 20 22 23 18 22 25 25 25 25 24 23 26 23 21 22 22 19 18 18 17 15 14 15 14 15 12 13 13 14 13 12 10 8 8 6 7
7 7 6 6 2 2 4 8 18 7 6 4 10 11 22 23 23 25 22 23 23 23 25 26 29 27 23 23 21 20 19 18 19 17 15 15 14 14 14 12 14 14 13 14 13 11 10 8 6
11 14 4 2 5 9 8 7 17 26 5 6 10 14 17 20 19 17 20 23 22 22 21 25 24 27 27 22 20 21 21 17 16 15 18 17 17 17 13 13 14 14 15 14 14 12 9 9 7
6 6 4 6 5 7 8 9 10 17 8 15 15 13 15 18 20 20 17 18 19 17 20 24 21 22 22 23 22 21 20 18 17 17 17 17 16 15 15 16 16 17 17 14 14 14 12 12 11
5 8 11 8 8 2 3 12 3 10 7 11 16 16 15 16 18 16 17 17 18 19 18 23 20 22 23 20 20 21 17 15 18 18 17 18 19 16 16 14 15 15 16 15 14 17 15 16 14
Wind_Direction
145 149 133 49 41 75 59 6 1 98 92 343 129 167 158 55 173 198 101 147 133 140 144 147 151 148 144 141 133 125 124 125 126 124 123 118 119 114 110 107 113 114 110 107 105 104 106 105 102
159 169 61 104 60 78 64 349 14 19 104 101 83 85 71 132 62 119 127 149 134 138 141 146 158 149 152 145 134 137 138 136 128 126 129 127 125 118 114 116 113 106 111 109 111 105 103 105 108
177 203 54 69 60 85 84 352 26 123 131 88 109 60 77 103 112 145 146 131 124 132 140 155 150 149 152 141 136 151 148 135 131 125 136 136 133 128 125 123 113 117 109 107 108 109 115 119 115
182 91 63 74 101 82 72 321 2 185 86 69 110 73 69 229 144 156 131 127 127 132 143 162 145 150 151 152 151 156 147 137 129 132 132 135 132 129 132 124 116 115 107 107 112 122 132 127 116
64 56 99 88 116 118 315 306 329 337 49 59 35 95 78 136 111 130 131 135 136 140 146 155 151 152 159 156 162 152 146 139 131 138 138 135 138 138 134 123 122 110 109 116 126 133 136 120 94
62 65 55 129 81 4 293 6 339 15 93 114 99 93 140 137 132 131 127 136 137 144 148 157 152 149 154 162 153 147 144 134 140 146 140 137 139 139 131 126 121 117 119 125 132 133 126 113 86
90 55 44 135 136 85 4 351 346 142 117 87 124 92 96 138 131 131 134 132 130 126 154 143 148 154 167 167 132 159 136 132 136 134 142 137 139 135 128 127 121 120 127 133 139 135 134 119 100
90 65 63 195 128 102 2 340 261 131 72 117 141 177 175 178 142 122 116 125 130 127 132 136 124 124 142 149 142 142 141 139 144 142 140 137 141 128 122 106 116 116 126 130 136 134 125 107 106
112 37 353 331 144 146 116 58 118 30 136 204 156 138 154 145 130 128 134 134 140 133 137 132 128 115 130 130 158 143 153 145 142 146 137 125 116 114 107 105 114 113 121 122 120 99 90 106 71
65 7 245 200 173 138 123 98 38 91 137 19 79 94 126 139 145 157 160 168 169 165 155 147 142 143 134 127 114 103 103 97 93 98 103 92 87 104 105 106 115 100 58 52 37 47 48 38 60
186 224 267 180 152 143 128 94 21 142 204 205 172 147 147 150 157 170 171 179 181 174 164 166 156 140 143 133 125 120 117 113 98 100 105 88 82 76 81 71 54 40 28 26 11 356 355 349 21
196 262 322 88 149 133 150 127 101 169 204 194 173 155 153 167 174 183 179 186 184 183 179 174 154 145 139 139 141 139 135 120 114 117 119 124 106 111 117 109 90 66 10 34 330 317 314 332 353
234 324 63 104 136 146 144 180 141 213 237 140 148 162 172 172 179 188 180 179 178 189 186 179 173 166 155 149 140 138 135 136 135 137 126 128 128 138 139 135 124 228 353 294 280 284 293 304 321
90 83 112 86 114 141 152 170 154 303 160 153 164 179 180 187 183 184 186 188 188 187 191 177 187 185 169 162 154 161 150 148 149 124 156 140 154 169 164 173 123 47 343 315 291 283 276 299 2
57 82 77 84 131 141 129 160 174 159 131 164 177 187 189 201 189 202 203 192 184 191 187 184 189 187 182 176 167 168 162 186 148 139 132 107 181 198 166 179 152 227 341 325 13 52 351 334 337
66 62 342 286 192 177 163 214 184 175 151 203 199 197 200 208 210 207 207 200 176 181 192 183 192 189 188 185 169 176 190 216 200 176 186 208 273 238 194 183 186 162 344 35 55 30 16 18 64
34 266 262 288 209 151 186 223 203 188 188 203 198 207 210 219 213 217 208 197 182 187 191 191 191 194 189 181 180 188 193 200 214 201 215 217 226 248 239 184 165 138 3 60 80 59 43 50 101
179 306 255 246 215 190 194 245 188 207 215 228 204 202 213 217 217 211 204 191 180 182 183 191 195 197 188 179 180 196 204 206 213 228 242 241 203 218 243 244 168 142 116 70 89 88 56 71 119
99 266 282 246 208 189 214 218 202 206 217 227 230 224 231 217 219 208 197 183 174 177 179 192 194 197 176 172 176 190 202 206 231 231 234 235 199 209 219 248 173 162 180 91 95 113 89 71 112
246 264 275 273 195 189 247 240 239 202 217 218 225 223 231 218 204 190 180 184 182 184 186 192 207 194 187 187 182 167 176 201 213 224 228 227 194 202 223 225 209 198 227 117 147 168 129 96 23
255 239 226 226 128 227 241 257 222 218 222 225 224 228 228 216 199 189 178 187 188 187 192 193 205 207 189 184 171 144 134 132 185 217 221 210 198 199 215 235 227 226 225 149 146 184 168 154 50
269 227 232 192 166 226 215 285 262 220 220 220 222 222 222 216 209 198 183 184 194 202 193 188 197 208 197 186 187 191 195 193 201 210 229 202 197 207 213 237 220 211 208 177 172 181 169 149 198
253 204 213 172 166 66 237 266 268 168 237 226 219 221 218 212 200 202 196 194 203 196 196 192 189 208 204 191 198 203 202 213 196 210 230 226 219 219 226 226 217 215 226 220 200 172 179 196 198
121 89 64 68 59 263 249 204 285 228 237 229 216 216 215 205 197 203 199 196 197 195 189 187 190 205 208 198 200 202 207 203 203 201 211 222 215 218 232 225 221 231 247 246 257 245 216 226 234
147 119 87 251 194 243 152 174 246 255 243 240 215 211 209 202 200 191 191 198 194 194 190 186 186 211 205 211 205 208 214 213 208 211 214 214 226 225 223 221 225 231 236 240 242 226 227 230 238
188 177 195 232 229 251 186 238 251 232 252 231 228 212 200 201 191 190 193 198 198 194 188 177 198 213 210 207 214 213 214 215 213 213 219 223 223 232 228 228 222 221 228 232 229 224 227 221 237
186 192 186 129 40 261 244 284 293 282 251 213 209 185 190 198 199 195 193 193 197 195 190 181 196 214 208 206 209 213 216 213 212 212 212 220 222 227 231 220 226 230 222 220 217 218 221 209 227
199 149 145 101 204 245 270 273 267 285 232 203 184 199 194 193 200 199 197 195 201 200 193 194 196 199 205 202 204 213 213 210 213 206 212 213 224 231 230 227 223 232 230 224 217 226 232 223 229
148 181 91 134 153 210 267 269 241 275 240 203 194 203 197 196 201 200 198 195 196 194 187 197 198 192 195 198 201 209 214 206 209 213 216 217 224 220 232 230 227 227 232 227 220 229 229 230 236
219 200 173 195 216 193 210 267 259 270 256 197 195 191 197 198 198 197 187 184 187 194 195 198 195 198 201 197 198 203 212 207 213 216 213 211 221 225 230 230 231 234 232 232 223 233 221 226 228